Wetbulb
37.96 35.23 33.18 35.35 34.64 32.71 33.17 31.21 31.21 32.58 36.82 35.85 34.70 35.03 38.10 39.57 39.22 38.93 39.19 39.45 39.66 40.07 41.65 41.89 42.78 43.47 46.59 53.66 56.51 58.63 60.15 62.14 62.88 62.76 62.25 62.01 61.82 62.47 62.89 63.15 63.33 62.04 60.84 59.53
35.56 32.23 36.46 37.20 35.55 35.07 33.54 32.02 31.50 33.53 36.40 35.57 33.41 35.48 37.52 37.47 37.85 38.15 37.57 38.06 38.55 38.69 39.11 40.58 41.70 42.06 43.07 46.34 51.76 55.03 58.19 60.33 62.15 63.00 62.95 63.08 62.95 62.95 62.99 63.29 63.11 63.08 61.79 60.57
33.36 35.08 37.35 36.49 34.04 34.44 31.57 32.32 31.90 31.64 32.73 32.65 30.63 31.92 32.91 35.71 36.35 37.55 37.16 37.38 38.61 38.80 39.99 41.03 42.22 42.06 42.77 42.28 42.50 48.61 53.79 57.54 60.68 62.44 61.19 58.57 60.13 59.72 61.91 62.20 62.46 62.87 62.72 61.89
34.45 36.11 35.39 33.64 32.92 33.95 31.07 34.70 34.32 33.12 30.69 28.31 31.10 26.70 30.86 32.70 35.27 36.11 37.10 37.75 38.50 39.37 40.71 41.09 41.54 42.07 42.47 43.33 43.82 43.37 46.25 52.66 56.42 60.11 60.44 60.43 60.70 60.01 61.36 62.15 62.57 62.59 63.09 62.60
33.50 34.18 34.26 32.45 34.10 35.32 32.60 35.18 33.57 31.62 30.28 28.88 29.06 27.59 30.59 30.85 32.94 35.53 37.07 38.28 39.12 39.69 40.03 41.00 41.74 42.39 42.36 43.40 44.13 45.87 48.00 49.68 52.67 56.34 59.60 59.37 59.92 60.90 60.31 59.99 61.41 62.21 62.20 62.91
34.12 36.11 35.26 34.85 35.25 35.28 35.62 33.16 31.39 29.77 28.09 23.94 27.88 26.52 27.90 29.88 32.79 35.25 36.90 38.10 39.16 39.83 40.43 41.10 41.93 42.30 42.35 42.90 43.69 44.73 45.35 45.67 51.11 54.46 55.77 57.15 57.94 57.78 56.51 56.26 56.91 59.48 60.95 61.37
31.76 32.52 34.75 36.57 34.41 35.74 32.46 30.41 24.52 23.23 21.32 21.99 25.86 24.93 28.90 31.55 34.19 36.50 36.99 38.00 38.75 39.08 39.80 40.48 40.91 41.33 41.78 41.54 41.71 42.95 43.63 43.35 44.80 46.90 50.40 52.94 54.53 55.35 55.55 55.20 55.03 54.38 54.18 55.27
28.70 26.82 34.45 36.26 34.55 33.01 31.09 30.99 25.31 19.54 18.06 22.07 25.92 24.24 29.27 32.71 34.58 37.06 37.38 38.02 38.40 38.68 39.11 39.47 39.80 40.30 40.74 41.04 41.54 42.21 42.24 42.27 42.66 43.65 44.59 45.74 47.07 49.88 51.37 52.40 53.33 53.35 53.73 54.62
28.10 27.83 34.65 35.38 35.85 36.64 31.82 29.02 31.18 24.26 13.48 19.37 24.44 27.32 32.26 34.61 35.55 36.41 37.41 37.91 37.99 38.31 38.78 39.22 39.88 39.93 40.06 40.34 40.31 40.57 41.26 41.41 41.76 42.22 43.01 43.52 44.25 44.78 45.48 46.32 48.33 49.69 50.39 50.18
33.89 28.32 32.60 33.90 35.78 34.99 32.50 34.12 28.51 24.77 15.11 15.10 21.05 23.37 26.74 32.00 34.07 35.91 36.32 36.49 37.27 38.38 39.11 39.47 39.59 39.83 40.27 40.04 40.25 40.48 40.27 39.66 40.01 40.91 41.54 42.05 42.58 43.41 43.95 44.45 44.69 45.33 46.25 46.68
35.23 33.63 30.05 33.26 32.06 31.02 31.07 29.68 29.37 29.56 26.15 18.72 16.01 23.79 29.90 34.73 34.82 34.76 35.83 36.22 36.76 37.96 38.49 38.95 39.31 39.55 39.73 40.15 40.15 40.30 40.00 39.77 39.38 39.52 39.85 40.14 40.52 41.30 41.96 42.21 42.66 43.15 43.87 44.26
36.15 32.96 28.46 30.14 33.08 33.27 31.60 31.55 30.88 25.73 22.26 22.14 23.10 25.56 35.01 35.67 35.35 36.41 36.31 36.43 37.69 38.28 38.19 38.33 38.61 38.72 38.67 38.96 39.29 39.18 39.23 38.80 38.21 38.29 38.53 38.35 38.31 38.31 38.49 38.86 39.92 40.61 40.79 41.44
36.40 30.92 22.87 27.07 30.60 31.22 29.69 30.41 30.23 29.15 27.49 21.70 21.27 23.98 34.14 34.30 35.37 36.37 36.40 37.42 37.74 37.85 38.08 38.06 37.97 37.78 37.86 38.04 38.22 38.02 38.23 37.49 37.08 36.67 36.70 36.88 36.63 36.53 36.52 36.54 36.73 36.85 37.18 37.63
39.71 31.01 29.33 26.92 28.26 30.82 28.69 29.83 30.22 31.30 27.00 25.32 26.95 27.11 29.98 32.91 34.76 35.82 36.55 37.14 37.03 37.35 37.31 37.14 37.24 37.24 37.48 37.81 37.83 37.54 37.59 37.11 35.80 35.36 35.21 34.94 34.97 34.80 34.88 34.89 34.85 34.73 34.82 35.05
36.57 28.91 30.06 30.75 31.01 30.53 30.48 30.31 29.42 30.28 32.76 28.92 30.88 28.94 34.26 34.67 35.31 36.62 37.04 36.40 35.65 35.79 35.79 36.06 36.18 36.60 36.65 36.83 36.87 36.76 36.69 36.03 34.47 33.62 33.56 33.53 33.74 33.48 33.03 32.78 32.60 32.68 32.95 33.85
36.26 31.36 31.15 29.94 32.95 31.64 30.17 31.36 31.41 32.86 30.23 30.62 28.49 30.00 35.38 37.69 36.22 35.78 35.87 35.06 34.47 34.33 34.63 35.13 35.60 35.97 35.94 35.82 35.54 35.29 34.73 33.81 32.58 31.94 31.86 31.96 31.20 30.83 30.94 30.84 30.79 30.95 31.39 31.70
35.10 33.01 29.50 22.65 30.98 30.54 28.65 30.74 31.37 31.40 31.91 32.70 30.05 33.28 35.00 34.34 35.71 35.50 34.34 34.32 34.19 33.73 33.65 33.27 33.84 34.67 34.90 34.37 34.28 33.26 33.03 32.01 30.81 30.76 30.58 30.28 30.09 29.92 30.03 29.62 29.36 29.58 30.03 30.58
33.31 32.14 30.99 23.86 28.01 24.60 28.98 26.74 32.07 32.34 33.10 33.98 32.89 33.72 36.62 37.17 36.67 36.32 36.32 35.03 32.99 31.85 31.94 32.66 33.17 33.60 34.08 33.57 32.81 31.96 30.95 30.76 30.70 30.88 30.52 29.81 29.50 28.96 28.71 28.19 28.01 28.30 28.83 28.76
36.23 31.04 22.97 23.44 23.01 25.26 25.42 27.14 30.28 31.50 30.90 34.70 32.85 33.27 33.70 33.24 33.40 32.45 35.34 34.62 32.50 32.41 32.74 32.97 33.20 33.32 32.64 32.02 31.22 30.37 30.53 30.10 29.54 29.76 29.61 29.33 28.61 27.36 26.93 25.89 26.72 27.13 27.44 27.89
33.78 33.42 28.74 21.10 22.35 19.38 25.55 27.49 29.88 31.29 23.33 31.08 34.83 33.86 31.41 30.77 26.99 28.97 34.05 33.85 33.25 32.55 31.67 31.39 32.39 32.17 31.50 30.99 29.86 28.74 28.50 27.12 27.71 28.38 28.33 27.76 27.22 25.46 24.90 25.96 25.61 26.58 26.20 26.33
28.02 27.84 25.41 23.34 22.71 20.70 26.89 26.69 29.42 24.24 25.05 26.73 32.46 32.71 30.84 28.88 29.98 31.44 33.08 32.38 32.50 31.74 31.31 30.57 30.39 30.26 30.04 29.25 27.61 26.72 26.59 25.95 27.42 25.76 25.13 24.72 25.11 23.59 23.72 23.95 24.40 23.76 23.90 24.14
27.24 25.25 24.96 19.83 20.96 19.40 27.36 25.47 26.01 28.87 29.63 30.16 30.95 31.10 30.93 30.73 31.32 32.24 31.20 30.27 30.59 30.53 29.88 29.59 29.03 28.82 28.47 27.46 24.34 24.40 24.00 25.81 23.16 21.97 21.75 22.84 24.72 26.16 25.38 21.82 22.54 21.95 20.47 21.31
22.32 27.44 25.54 26.53 26.53 28.59 26.89 27.36 29.34 31.82 31.25 31.08 30.75 31.04 31.43 29.23 28.37 28.38 28.22 28.07 28.75 28.99 27.85 27.27 23.78 23.25 23.66 20.68 19.97 21.32 23.00 22.58 20.64 17.16 16.16 17.46 19.76 22.33 25.61 25.24 24.51 23.98 23.91 24.41
23.88 25.60 25.60 26.09 25.48 25.84 27.23 28.02 29.83 31.13 31.64 31.56 30.77 29.23 29.22 27.90 27.43 26.84 26.95 27.57 27.27 25.31 23.27 20.16 17.40 15.83 16.40 16.71 18.54 17.00 18.86 19.26 12.16 11.32 13.44 15.95 16.99 18.51 20.52 25.67 26.98 25.54 23.48 22.18
24.20 25.81 22.56 20.56 23.48 25.49 27.03 28.78 30.81 30.93 29.93 28.58 28.52 28.29 28.17 28.01 26.66 26.68 26.00 24.91 23.75 22.09 18.92 15.87 14.76 15.29 15.27 15.88 14.53 12.45 15.47 11.53 10.57 10.79 12.53 13.65 15.71 16.76 18.32 19.98 23.18 25.44 26.65 25.09
23.48 23.50 23.71 23.25 26.86 27.99 28.79 29.29 30.09 28.17 27.77 27.77 27.05 26.26 26.66 27.06 25.94 24.16 22.46 20.06 18.39 16.19 15.57 13.83 12.56 11.50 10.81 10.57 10.62 10.14 4.93 3.14 3.71 6.38 9.96 11.55 12.21 14.00 15.83 17.25 19.16 26.09 28.97 29.95
MSLP
1015.77 1016.77 1017.00 1017.61 1017.86 1018.03 1018.48 1018.82 1019.23 1019.43 1019.49 1019.97 1019.75 1019.67 1019.39 1019.21 1019.41 1019.78 1019.86 1020.03 1019.86 1019.75 1019.16 1018.95 1019.03 1019.01 1019.05 1019.36 1019.47 1019.48 1019.70 1019.92 1020.49 1020.85 1021.23 1021.59 1021.64 1022.15 1022.42 1022.62 1022.90 1023.26 1023.78 1024.35
1016.64 1016.99 1017.19 1017.77 1018.03 1018.28 1018.78 1019.22 1019.68 1019.82 1019.84 1020.30 1020.30 1019.76 1019.36 1019.50 1019.79 1020.10 1020.21 1020.32 1020.35 1020.06 1019.57 1019.37 1019.23 1019.13 1019.04 1019.05 1019.12 1019.42 1019.40 1019.76 1020.06 1020.43 1020.59 1020.82 1021.18 1021.40 1021.65 1022.03 1022.23 1022.54 1022.91 1023.32
1016.70 1016.94 1017.00 1017.77 1018.37 1018.75 1019.26 1019.22 1019.90 1020.11 1020.49 1020.87 1020.77 1020.27 1019.75 1019.87 1020.10 1020.34 1020.49 1020.70 1020.90 1020.73 1020.45 1020.09 1019.83 1019.74 1019.61 1019.49 1019.41 1019.31 1019.43 1019.64 1019.85 1020.09 1020.50 1020.99 1021.30 1021.50 1021.46 1021.58 1021.83 1021.89 1022.19 1022.52
1016.79 1017.02 1017.40 1017.88 1018.38 1018.73 1019.44 1019.31 1019.89 1020.67 1021.26 1021.63 1021.62 1021.55 1020.40 1020.57 1020.52 1020.91 1021.20 1021.28 1021.50 1021.34 1021.03 1020.84 1020.61 1020.32 1020.13 1019.95 1019.57 1019.27 1019.46 1019.68 1019.86 1020.15 1020.27 1020.56 1020.76 1020.80 1020.63 1020.94 1021.24 1021.35 1021.59 1021.76
1016.94 1017.23 1017.50 1018.11 1018.02 1018.52 1019.47 1019.67 1020.44 1021.47 1022.12 1022.31 1022.35 1022.24 1020.65 1020.90 1021.01 1021.43 1021.63 1021.88 1021.96 1021.89 1021.85 1021.71 1021.35 1021.19 1021.02 1020.39 1020.14 1019.74 1019.54 1019.78 1019.99 1020.16 1020.30 1020.45 1020.67 1020.71 1020.79 1020.92 1020.98 1021.02 1021.06 1021.18
1017.24 1017.11 1017.11 1017.63 1018.30 1018.73 1019.79 1020.34 1021.44 1022.70 1023.13 1023.54 1022.96 1022.73 1021.53 1021.21 1021.27 1021.63 1021.90 1022.13 1022.27 1022.38 1022.26 1022.17 1022.00 1021.75 1021.69 1021.23 1020.66 1020.35 1020.19 1020.53 1020.43 1020.35 1020.44 1020.59 1020.76 1020.97 1021.14 1021.13 1021.19 1021.07 1021.02 1020.82
1017.43 1017.31 1017.50 1017.77 1018.60 1019.55 1019.56 1020.72 1022.67 1023.90 1024.51 1024.41 1023.93 1023.55 1021.65 1021.18 1021.42 1021.66 1022.02 1022.31 1022.49 1022.62 1022.47 1022.49 1022.38 1022.15 1022.00 1021.93 1021.74 1021.34 1021.03 1021.13 1021.21 1021.03 1021.04 1021.13 1021.11 1021.12 1021.13 1021.21 1021.21 1021.21 1021.18 1021.00
1017.11 1017.81 1017.49 1017.62 1018.07 1018.80 1019.65 1020.07 1021.30 1023.12 1024.74 1024.89 1024.57 1023.23 1021.46 1021.39 1021.49 1021.88 1022.44 1022.47 1022.75 1022.95 1023.18 1023.38 1023.42 1023.12 1022.98 1022.75 1022.56 1022.17 1022.02 1022.01 1021.95 1021.87 1021.79 1021.64 1021.50 1021.50 1021.46 1021.45 1021.44 1021.41 1021.26 1021.07
1016.45 1017.30 1017.55 1017.75 1017.91 1018.37 1019.48 1020.04 1020.58 1022.74 1025.51 1024.97 1023.94 1022.82 1021.96 1021.85 1021.82 1022.24 1022.64 1022.90 1023.12 1023.53 1023.58 1023.88 1024.08 1023.84 1023.76 1023.62 1023.55 1023.28 1022.98 1022.88 1022.65 1022.52 1022.36 1022.14 1022.05 1021.83 1021.82 1021.55 1021.55 1021.42 1021.18 1020.99
1015.13 1016.90 1017.90 1018.16 1017.94 1018.29 1018.41 1019.12 1020.54 1022.23 1024.30 1024.84 1023.92 1022.97 1021.73 1021.99 1022.03 1022.48 1022.83 1023.39 1023.55 1023.89 1023.88 1023.92 1024.24 1024.14 1023.90 1023.87 1023.79 1023.81 1023.72 1023.58 1023.57 1023.11 1022.88 1022.89 1022.55 1022.16 1021.92 1021.61 1021.59 1021.43 1021.22 1020.96
1014.79 1015.82 1018.59 1018.41 1018.08 1018.02 1018.80 1019.24 1020.12 1020.91 1022.23 1023.18 1023.50 1022.04 1020.18 1020.82 1021.32 1022.19 1022.90 1023.33 1023.62 1024.05 1024.24 1024.38 1024.53 1024.55 1024.53 1024.49 1024.37 1024.24 1024.00 1023.90 1023.73 1023.55 1023.52 1023.42 1023.20 1022.76 1022.37 1022.19 1021.95 1021.74 1021.47 1021.20
1014.85 1015.99 1017.95 1017.96 1018.14 1018.40 1018.20 1018.54 1019.12 1020.31 1022.14 1022.51 1022.31 1021.05 1020.05 1020.59 1021.27 1021.95 1022.78 1023.46 1023.83 1024.12 1024.48 1024.63 1024.67 1024.74 1024.74 1024.84 1024.71 1024.61 1024.51 1024.41 1024.43 1024.18 1023.92 1023.78 1023.56 1023.25 1022.94 1022.62 1022.42 1022.12 1021.80 1021.29
1014.68 1015.95 1018.07 1018.81 1018.86 1018.63 1018.69 1018.09 1018.78 1019.42 1020.42 1021.28 1021.91 1021.28 1021.18 1021.41 1021.78 1022.29 1022.78 1023.38 1023.97 1024.36 1024.59 1024.82 1024.93 1025.11 1025.18 1025.31 1025.25 1025.14 1025.12 1025.13 1025.11 1024.91 1024.69 1024.40 1024.11 1023.67 1023.24 1022.92 1022.62 1022.20 1021.78 1021.34
1014.59 1015.73 1016.40 1016.83 1016.79 1017.41 1018.76 1018.29 1018.64 1019.00 1020.00 1020.35 1020.07 1020.79 1021.54 1021.86 1022.10 1022.46 1023.06 1023.55 1024.13 1024.56 1024.81 1025.00 1025.13 1025.28 1025.41 1025.43 1025.51 1025.48 1025.53 1025.47 1025.45 1025.28 1025.04 1024.67 1024.26 1023.94 1023.53 1023.15 1022.77 1022.35 1021.93 1021.49
1015.20 1016.25 1016.90 1017.36 1017.44 1017.36 1017.32 1017.46 1018.05 1018.57 1017.89 1019.03 1018.13 1019.17 1019.25 1020.39 1021.16 1021.82 1022.73 1023.56 1024.24 1024.69 1025.03 1025.22 1025.46 1025.65 1025.78 1025.76 1025.81 1025.82 1025.80 1025.72 1025.67 1025.50 1025.28 1025.01 1024.62 1024.10 1023.76 1023.30 1022.91 1022.47 1022.00 1021.58
1016.16 1016.93 1017.61 1018.40 1018.36 1018.21 1017.92 1017.61 1017.45 1017.44 1017.68 1017.91 1017.96 1018.45 1018.16 1019.76 1021.18 1022.17 1022.77 1023.49 1024.18 1024.65 1025.01 1025.28 1025.70 1025.77 1025.80 1025.81 1025.89 1025.76 1025.73 1025.66 1025.60 1025.21 1024.96 1024.65 1024.22 1023.92 1023.66 1023.38 1023.03 1022.63 1022.17 1021.67
1016.78 1017.23 1018.28 1018.97 1019.00 1019.05 1018.75 1016.92 1017.13 1017.16 1017.14 1017.19 1017.57 1017.66 1018.53 1019.74 1020.71 1021.62 1022.59 1023.21 1024.08 1024.84 1025.15 1025.18 1025.54 1025.81 1025.88 1025.87 1025.77 1025.71 1025.55 1025.39 1025.14 1024.70 1024.50 1024.36 1024.18 1023.95 1023.58 1023.17 1022.81 1022.38 1021.95 1021.46
1017.01 1017.66 1018.42 1019.23 1019.50 1018.85 1016.65 1016.62 1016.28 1016.42 1016.52 1016.70 1017.15 1017.66 1018.31 1018.95 1020.22 1021.10 1021.88 1022.97 1023.98 1024.37 1024.69 1024.94 1025.30 1025.56 1025.70 1025.71 1025.62 1025.45 1025.12 1024.78 1024.75 1024.50 1024.44 1024.39 1024.28 1023.98 1023.55 1023.06 1022.64 1022.18 1021.75 1021.31
1017.04 1017.67 1018.90 1019.29 1019.12 1018.29 1017.07 1016.72 1016.66 1016.39 1016.53 1016.53 1017.33 1018.28 1018.89 1020.03 1020.91 1021.93 1022.14 1022.78 1023.49 1024.12 1024.58 1024.93 1025.26 1025.42 1025.54 1025.54 1025.58 1025.44 1025.15 1025.16 1025.23 1025.21 1025.10 1024.79 1024.56 1024.15 1023.73 1023.20 1022.59 1022.13 1021.55 1021.05
1017.47 1017.41 1018.15 1019.24 1018.92 1017.98 1016.64 1016.11 1015.96 1016.25 1016.55 1016.40 1017.10 1018.23 1019.16 1020.10 1021.25 1021.60 1022.29 1023.03 1023.73 1024.15 1024.57 1024.92 1025.21 1025.51 1025.67 1025.98 1026.13 1026.21 1026.09 1026.01 1025.91 1025.67 1025.39 1025.08 1024.63 1024.30 1023.87 1023.34 1022.71 1022.00 1021.63 1020.76
1018.02 1018.01 1018.20 1018.42 1018.40 1017.36 1016.19 1016.20 1016.31 1016.77 1016.99 1016.47 1017.13 1018.13 1019.27 1020.17 1020.40 1020.96 1022.21 1023.06 1023.57 1024.03 1024.51 1024.99 1025.40 1025.84 1026.10 1026.32 1026.60 1026.56 1026.43 1026.29 1026.08 1025.99 1025.54 1025.15 1024.71 1024.15 1023.67 1022.91 1022.47 1021.77 1021.07 1020.37
1016.63 1017.37 1017.96 1018.35 1018.28 1017.20 1015.75 1016.93 1016.71 1016.28 1016.66 1017.07 1017.83 1018.56 1019.64 1020.33 1021.07 1021.75 1022.48 1023.15 1023.73 1024.23 1024.70 1025.25 1025.83 1026.27 1026.44 1026.51 1026.73 1026.64 1026.42 1026.05 1026.11 1025.87 1025.49 1024.96 1024.34 1023.83 1023.34 1022.80 1021.91 1021.31 1020.78 1019.96
1016.77 1015.51 1016.18 1016.58 1016.12 1015.39 1015.55 1015.62 1015.61 1016.11 1016.67 1017.81 1018.14 1018.97 1019.55 1020.58 1021.40 1022.03 1022.69 1023.18 1023.90 1024.60 1025.23 1025.77 1026.37 1026.71 1026.86 1027.00 1027.00 1026.84 1026.41 1026.31 1026.10 1025.92 1025.42 1024.75 1024.03 1023.43 1022.74 1021.95 1021.06 1020.44 1020.05 1019.27
1016.52 1015.83 1015.68 1016.19 1015.86 1015.71 1015.91 1016.10 1016.09 1016.32 1016.88 1017.67 1018.39 1019.13 1019.88 1020.78 1021.64 1022.51 1023.39 1024.13 1024.75 1025.47 1026.17 1026.64 1027.16 1027.39 1027.28 1027.19 1027.11 1027.19 1026.90 1026.67 1026.59 1026.11 1025.39 1024.62 1023.85 1022.90 1022.28 1021.27 1020.35 1019.62 1019.19 1018.65
1015.92 1015.94 1015.91 1016.09 1016.21 1016.16 1016.27 1016.35 1016.39 1016.83 1017.35 1018.05 1018.91 1019.51 1020.22 1020.95 1022.04 1022.91 1023.96 1024.81 1025.59 1026.26 1026.84 1027.06 1027.33 1027.51 1027.51 1027.53 1027.57 1027.40 1027.23 1027.02 1026.75 1026.13 1025.34 1024.47 1023.61 1022.75 1021.70 1020.95 1020.05 1018.95 1018.10 1017.93
1015.35 1015.09 1015.10 1014.76 1014.80 1014.99 1015.28 1015.82 1016.43 1017.02 1017.70 1018.23 1018.99 1020.06 1020.78 1021.29 1022.32 1023.41 1024.56 1025.45 1026.24 1026.79 1027.26 1027.63 1027.96 1028.04 1027.95 1027.83 1027.60 1027.38 1027.31 1027.16 1027.00 1026.12 1025.14 1024.27 1023.38 1022.39 1021.55 1020.44 1018.87 1018.11 1017.09 1016.58
Wind_Speed
3 5 7 10 5 4 7 5 5 2 1 1 3 5 10 6 4 8 7 7 8 8 5 6 5 6 6 7 10 12 13 13 10 9 9 9 9 8 7 6 10 12 11 12
6 5 6 8 6 7 5 5 3 2 3 2 2 7 8 6 3 4 6 6 7 7 7 7 6 5 2 3 6 7 11 10 11 9 9 7 8 8 8 7 8 11 12 12
7 2 10 7 5 8 1 7 5 4 2 3 3 7 5 2 3 6 7 4 5 6 6 7 8 7 6 5 3 5 6 6 9 9 3 2 1 1 4 6 7 9 12 13
4 3 7 8 5 6 5 5 6 7 4 3 3 4 4 4 4 7 8 8 7 7 6 5 7 8 8 7 5 4 1 4 4 6 7 9 10 10 9 8 6 7 11 12
5 7 7 4 5 6 3 5 7 4 5 4 2 4 7 4 5 5 7 7 7 6 6 7 7 7 7 8 8 6 7 5 1 4 5 6 8 5 2 2 7 7 8 11
3 1 3 4 5 3 10 8 9 5 3 1 1 5 6 1 4 2 2 4 4 6 6 6 4 6 7 8 10 10 10 9 7 4 0 3 4 3 2 2 4 5 5 5
1 2 1 4 9 6 4 6 3 2 3 5 3 3 7 1 1 4 5 4 4 5 7 9 12 11 11 11 10 8 11 12 10 8 7 5 3 3 4 4 3 3 3 3
7 3 8 3 5 10 7 6 7 8 5 2 2 6 5 1 2 4 3 5 6 8 7 9 8 9 10 11 12 11 12 11 9 8 8 6 6 3 3 3 3 4 4 4
6 3 1 2 3 4 6 5 5 9 3 4 4 5 4 1 6 5 5 5 7 7 7 7 7 8 9 9 10 9 10 10 11 9 7 6 5 5 4 4 4 4 5 4
7 5 2 0 2 3 4 8 5 3 5 4 4 4 6 8 10 7 6 6 6 5 7 7 7 8 8 7 5 7 7 8 7 9 9 7 7 7 5 4 5 5 5 4
6 6 1 3 6 8 3 3 4 5 4 7 3 8 6 13 9 10 7 6 7 6 5 5 5 6 6 6 8 9 11 11 11 10 8 7 8 8 7 7 7 7 6 6
4 6 5 7 1 1 1 6 6 7 5 1 3 6 3 11 9 8 8 6 6 6 6 5 6 6 6 7 8 8 9 11 10 9 10 10 9 8 7 6 5 5 7 7
8 3 4 5 4 2 5 6 3 5 4 7 8 6 2 4 6 4 8 6 6 5 6 5 6 5 5 5 5 6 6 6 6 6 6 6 7 8 9 9 9 8 8 7
5 4 10 13 5 9 7 5 6 5 4 5 8 8 8 8 8 6 6 5 6 5 5 4 5 5 5 5 5 5 5 5 5 5 5 6 7 8 8 8 9 9 8 9
4 7 4 3 2 2 6 10 11 12 15 10 11 11 24 19 14 11 8 7 7 6 5 4 3 3 3 3 3 2 2 3 4 4 4 4 5 6 7 8 9 10 9 9
2 4 3 5 1 4 3 5 15 17 5 1 7 5 4 12 7 7 9 9 7 7 5 4 2 3 2 2 3 4 4 4 3 4 5 4 4 4 5 6 7 8 8 8
4 6 4 5 4 2 5 14 12 6 5 10 11 7 7 7 12 12 11 9 8 8 7 6 4 3 2 2 3 5 5 5 4 5 5 6 7 8 8 8 8 8 9 9
6 5 2 4 4 10 3 2 5 6 8 6 5 6 10 12 6 7 9 11 9 7 5 4 2 1 2 2 3 4 5 7 9 10 10 8 10 10 10 9 9 9 8 8
4 5 4 5 4 5 2 6 7 10 9 10 9 7 6 7 6 2 5 5 7 7 5 4 1 1 3 6 6 7 9 9 9 9 10 10 10 11 11 11 11 10 9 10
4 4 4 3 4 8 5 3 4 4 5 8 12 13 10 7 5 4 8 7 7 7 5 4 2 2 6 6 6 6 7 7 8 8 11 11 10 9 10 11 11 7 9 11
5 4 4 4 2 8 6 5 4 8 9 3 8 11 11 7 4 6 9 7 6 6 6 4 4 4 4 4 4 5 6 6 6 7 9 9 9 9 10 10 8 9 9 9
10 8 5 3 3 9 9 4 11 4 3 6 7 6 9 7 7 9 8 7 6 5 4 5 4 3 4 4 3 5 7 6 5 7 9 10 10 10 10 10 11 9 8 9
3 6 8 9 8 1 6 1 3 5 7 6 7 6 10 9 6 7 5 4 4 5 4 3 4 4 5 3 1 5 7 8 9 9 10 10 11 10 10 13 13 11 9 9
3 2 4 4 4 3 4 2 5 5 5 8 7 10 8 8 8 6 5 5 4 3 2 3 2 3 5 3 3 5 8 8 6 10 11 10 11 11 10 9 9 9 9 8
4 8 6 2 1 4 1 4 6 6 8 10 7 6 7 9 7 6 6 5 5 4 2 1 2 3 6 4 4 4 7 5 9 10 10 10 9 10 11 10 10 11 11 10
5 7 6 6 9 5 8 9 8 10 9 10 9 6 4 5 7 5 5 4 4 3 2 3 3 5 7 6 7 6 3 3 7 11 8 8 9 9 9 10 12 16 20 21
Wind_Direction
31 102 180 190 156 123 127 117 135 159 38 206 213 267 280 281 288 304 308 303 303 298 304 306 303 265 225 209 208 202 198 200 186 192 196 209 209 206 210 198 193 194 195 198
53 205 191 119 124 113 114 118 136 76 51 143 8 281 270 325 312 333 314 324 322 325 340 351 1 9 223 219 215 208 214 195 197 203 210 212 210 216 213 206 201 200 199 197
151 226 135 125 126 116 106 145 173 146 114 64 330 313 338 9 22 21 26 14 7 356 15 14 23 28 26 27 294 224 217 199 202 199 149 97 74 45 195 213 212 208 203 203
147 114 138 125 155 132 151 167 124 121 100 190 2 270 313 326 40 34 20 21 7 10 18 30 21 28 19 13 21 42 250 217 205 190 188 205 223 228 227 227 218 211 207 210
201 158 140 138 188 153 176 117 114 97 96 96 335 88 269 315 51 18 20 18 21 21 29 43 39 32 20 25 29 35 55 54 15 204 213 202 224 239 231 234 233 220 208 215
127 110 118 138 67 66 152 82 55 52 87 67 200 137 280 216 165 115 39 39 31 30 44 46 38 36 32 19 33 39 50 40 31 49 39 219 243 258 252 240 240 238 237 221
77 92 65 130 83 10 86 96 46 11 0 215 3 106 237 235 103 150 137 83 39 36 49 42 36 34 36 32 25 33 43 38 23 32 32 16 339 303 272 264 256 249 246 253
150 194 162 177 172 172 183 163 157 189 187 226 66 223 243 215 91 88 81 109 71 55 44 43 30 36 37 35 33 41 45 47 32 30 22 16 17 0 333 323 304 284 272 263
133 195 91 121 156 152 184 194 144 104 27 72 208 278 311 102 120 129 128 97 78 73 60 54 34 39 41 42 37 35 42 40 34 32 26 27 23 27 360 342 315 296 284 278
196 108 29 211 127 66 158 160 82 10 131 225 263 258 217 181 177 173 143 113 92 77 62 52 38 35 40 37 35 38 37 41 22 25 28 18 13 16 11 12 356 332 304 297
135 105 8 124 215 166 127 181 61 119 138 161 157 251 213 178 165 160 158 135 124 106 93 79 56 39 39 40 35 37 33 30 25 21 11 13 8 8 13 12 2 349 324 313
197 115 153 190 275 297 169 181 162 140 221 265 142 269 163 148 163 156 142 130 123 110 103 86 71 54 43 34 29 30 26 26 13 6 7 6 0 1 5 4 343 332 328 325
183 171 86 9 350 359 235 169 151 108 82 196 136 249 29 99 141 169 145 134 118 113 91 77 62 54 47 32 24 18 13 11 354 348 348 352 356 359 357 351 344 343 333 320
99 141 180 203 183 133 190 182 175 147 172 161 220 151 190 199 184 179 157 141 121 100 87 73 55 41 26 16 8 3 352 347 335 331 336 348 352 349 345 338 339 336 334 327
138 176 127 74 41 165 171 172 175 196 217 185 215 179 190 190 185 183 164 148 142 129 100 82 77 61 46 31 16 343 297 307 311 316 323 329 314 325 325 333 332 328 328 325
14 143 110 196 175 12 210 193 195 210 191 65 143 221 217 168 141 154 168 158 155 151 145 133 124 100 64 358 335 326 323 319 300 326 342 323 328 320 314 312 316 314 313 314
128 130 152 218 159 130 286 215 190 180 186 166 196 190 139 138 164 176 171 166 164 174 172 150 128 122 94 20 331 345 321 301 332 348 346 347 343 339 335 326 323 322 321 317
131 124 94 135 124 211 271 356 202 172 174 180 108 164 166 158 140 143 161 159 164 155 144 126 100 50 31 341 352 322 344 3 360 353 349 346 343 335 330 328 324 318 314 309
149 120 118 165 188 302 269 198 160 172 232 199 154 149 124 108 102 137 153 145 152 150 146 146 156 8 4 12 1 0 352 353 351 342 334 331 330 323 323 318 317 313 309 313
124 101 116 156 170 202 240 174 188 143 282 177 157 169 151 132 158 211 167 146 146 150 153 151 125 38 18 11 6 353 332 334 324 327 323 316 311 305 305 304 305 299 296 292
160 127 165 171 167 284 236 199 191 135 234 157 146 155 150 171 176 143 142 142 147 157 143 103 65 28 355 6 1 318 306 302 297 314 309 304 303 296 293 292 290 288 291 290
164 153 177 109 132 259 157 78 169 195 68 134 123 129 134 130 120 134 135 139 141 123 85 61 44 354 338 353 342 313 310 313 310 307 303 299 299 302 296 285 293 282 279 284
225 181 170 180 206 357 185 168 151 150 139 156 128 141 138 136 142 146 134 102 65 77 69 47 31 352 324 315 318 310 311 324 320 315 304 299 297 293 292 295 294 299 296 290
275 245 144 98 217 201 175 94 153 165 130 130 127 134 136 137 145 150 149 141 127 97 77 51 1 291 301 314 326 288 309 312 315 303 300 299 297 299 293 287 290 283 288 285
187 142 152 297 323 81 239 218 167 125 121 116 121 137 145 139 147 144 141 138 135 149 137 49 333 318 309 323 315 293 308 328 317 309 303 297 291 292 296 285 283 285 275 258
188 168 174 216 177 160 197 183 165 144 163 158 140 132 121 132 140 125 128 117 102 50 357 348 317 313 313 314 315 315 316 332 312 307 304 303 300 297 292 292 294 282 279 281